パンスターズ彗星

P/2016 BA14 ( PanSTARRS )

English version
Home page
Updated on November 13, 2016

---------------------------------------------------------------------

・ プロフィール

発見日 2016年1月22日
発見光度 19.6等
発見者 Pan-STARRS 1 telescope (Haleakala)

・ 写真集

・ 軌道要素

Epoch 2016 Apr. 2.0 TT = JDT 2457480.5
T 2016 Mar. 15.51741 TT                                 MPCW
q   1.0085745            (2000.0)            P               Q
n   0.18755788     Peri.  351.89525     -0.99121465     -0.13222836
a   3.0225895      Node   180.53526     +0.13205435     -0.98810495
e   0.6663210      Incl.   18.92015     +0.00742720     -0.07851283
P   5.25
From 1792 observations 2015 Dec. 1-2016 Oct. 9, mean residual 0".4.

・ 星図

・ 光度変化

        H = 19.0  G = 0.15

---------------------------------------------------------------------

軌道要素はM.P.E.C. 2016-U66に掲載されたものです。
星図はステラナビゲータ Ver.10 (アストロアーツ) で作成したものです。
光度グラフはComet for Windowsで作成したものです。

---------------------------------------------------------------------

Copyright(C) Seiichi Yoshida (comet@aerith.net). All rights reserved.